Waukesha, WI

10:10 AM CDT on May 24, 2017 (GMT -0500)
Waukesha County

Weather History for KUES - February, 2014

Change the Weather History Date:

Wednesday, February 5, 2014

  Actual Average Record
Temperature  
Mean Temperature 12 °F -  
Max Temperature 19 °F 27 °F 52 °F (1964)
Min Temperature 5 °F 12 °F -14 °F (2007)
Degree Days  
Heating Degree Days 53    
Moisture  
Dew Point 9 °F    
Average Humidity 83    
Maximum Humidity 93    
Minimum Humidity 67    
Precipitation  
Precipitation 0.00 in - - ()
Sea Level Pressure  
Sea Level Pressure 30.26 in    
Wind  
Wind Speed 9 mph (NNW)    
Max Wind Speed 17 mph    
Max Gust Speed 25 mph    
Visibility 7 miles    
Events Snow    
Averages and records for this station are not official NWS values.
T = Trace of Precipitation, MM = Missing Value Source: NWS Daily Summary

Daily Weather History Graph

Daily Weather History Graph

Search for Another Location

Airport or City:

Trip Planner

Search our weather history database for the weather conditions in past years. The results will help you decide how hot, cold, wet, or windy it might be!

Date:

Astronomy

Feb. 05, 2014 Rise Set
Actual Time 7:03 AM CST 5:10 PM CST
Civil Twilight 6:33 AM CST 5:40 PM CST
Nautical Twilight 5:59 AM CST 6:14 PM CST
Astronomical Twilight 5:26 AM CST 6:47 PM CST
Moon 10:07 AM CST (2/5) No Moon Set
Length of Visible Light 11h 07m
Length of Day
10h 07m
Waxing Crescent, 39% of the Moon is Illuminated
Feb 5
Waxing Crescent
Feb 6
First Quarter
Feb 14
Full
Feb 22
Last Quarter
Mar 1
New

Hourly Weather History & Observations

Time (CST) Temp. Windchill Dew Point Humidity Pressure Visibility Wind Dir Wind Speed Gust Speed Precip Events Conditions
12:15 AM 19.4 °F 7.9 °F 15.8 °F 86% 30.15 in 10.0 mi North 10.4 mph - N/A   Overcast
12:35 AM 19.4 °F 7.2 °F 15.8 °F 86% 30.15 in 5.0 mi North 11.5 mph - N/A   Overcast
12:55 AM 19.4 °F 7.2 °F 15.8 °F 86% 30.13 in 7.0 mi North 11.5 mph - N/A   Overcast
1:15 AM 19.4 °F 7.2 °F 17.6 °F 93% 30.13 in 5.0 mi North 11.5 mph 17.3 mph N/A   Overcast
1:35 AM 19.4 °F 8.6 °F 17.6 °F 93% 30.13 in 3.0 mi North 9.2 mph - N/A Snow Light Snow
1:55 AM 19.4 °F 7.9 °F 17.6 °F 93% 30.12 in 2.5 mi North 10.4 mph - N/A Snow Light Snow
2:15 AM 19.4 °F 8.6 °F 17.6 °F 93% 30.12 in 3.0 mi North 9.2 mph - N/A Snow Light Snow
2:35 AM 19.4 °F 9.5 °F 17.6 °F 93% 30.12 in 2.5 mi North 8.1 mph - N/A Snow Light Snow
2:55 AM 19.4 °F 8.6 °F 17.6 °F 93% 30.12 in 2.5 mi North 9.2 mph 17.3 mph N/A Snow Light Snow
3:15 AM 19.4 °F 7.2 °F 17.6 °F 93% 30.11 in 2.5 mi North 11.5 mph - N/A Snow Light Snow
3:35 AM 19.4 °F 7.2 °F 17.6 °F 93% 30.11 in 2.5 mi North 11.5 mph 16.1 mph N/A Snow Light Snow
3:55 AM 19.4 °F 6.6 °F 15.8 °F 86% 30.12 in 3.0 mi North 12.7 mph - N/A Snow Light Snow
4:15 AM 19.4 °F 6.0 °F 15.8 °F 86% 30.12 in 3.0 mi North 13.8 mph 17.3 mph N/A Snow Light Snow
4:35 AM 19.4 °F 6.6 °F 15.8 °F 86% 30.11 in 2.0 mi North 12.7 mph 18.4 mph N/A Snow Light Snow
5:45 AM 17.6 °F 5.0 °F 14.0 °F 86% 30.13 in 2.0 mi North 11.5 mph - N/A Snow Light Snow
6:45 AM 15.8 °F - 14.0 °F 93% 30.16 in 3.0 mi North - - N/A Snow Light Snow
7:45 AM 15.8 °F - 10.4 °F 79% 30.18 in 2.0 mi North - - N/A Snow Light Snow
8:15 AM 15.8 °F - 10.4 °F 79% 30.20 in 1.0 mi North - - N/A Snow Light Snow
8:45 AM 14.0 °F - 10.4 °F 86% 30.20 in 3.0 mi North - - N/A Snow Light Snow
9:45 AM 15.8 °F -0.2 °F 8.6 °F 73% 30.23 in 10.0 mi NNW 17.3 mph - N/A   Overcast
10:45 AM 15.8 °F -0.2 °F 6.8 °F 68% 30.26 in 10.0 mi NNW 17.3 mph 25.3 mph N/A   Mostly Cloudy
11:45 AM 15.8 °F 1.4 °F 6.8 °F 68% 30.27 in 10.0 mi NNW 13.8 mph - N/A   Overcast
1:45 PM 15.8 °F 2.1 °F 6.8 °F 68% 20.28 in 10.0 mi NW 12.7 mph - N/A   Scattered Clouds
2:45 PM 12.2 °F -1.8 °F 5.0 °F 73% 30.31 in 10.0 mi NNW 11.5 mph - N/A   Scattered Clouds
3:45 PM 12.2 °F 0.7 °F 3.2 °F 67% 30.35 in 10.0 mi NW 8.1 mph - N/A   Scattered Clouds
4:45 PM 12.2 °F 0.7 °F 3.2 °F 67% 30.35 in 10.0 mi NW 8.1 mph - N/A   Scattered Clouds
5:45 PM 12.2 °F 2.9 °F 5.0 °F 73% 30.37 in 10.0 mi NW 5.8 mph - N/A   Mostly Cloudy
6:45 PM 10.4 °F 4.0 °F 5.0 °F 79% 30.38 in 7.0 mi WNW 3.5 mph - N/A   Scattered Clouds
7:45 PM 10.4 °F 2.2 °F 5.0 °F 79% 30.38 in 10.0 mi WNW 4.6 mph - N/A   Scattered Clouds
8:15 PM 10.4 °F - 6.8 °F 85% 30.38 in 10.0 mi Calm Calm - N/A   Clear
8:35 PM 8.6 °F 2.0 °F 5.0 °F 85% 30.39 in 10.0 mi West 3.5 mph - N/A   Clear
8:45 PM 8.6 °F - 5.0 °F 85% 30.39 in 10.0 mi Calm Calm - N/A   Clear
8:55 PM 8.6 °F - 5.0 °F 85% 30.39 in 10.0 mi Calm Calm - N/A   Clear
9:15 PM 5.0 °F -2.1 °F 1.4 °F 85% 30.39 in 10.0 mi West 3.5 mph - N/A   Clear
9:35 PM 8.6 °F 0.1 °F 3.2 °F 79% 30.39 in 10.0 mi West 4.6 mph - N/A   Clear
9:55 PM 8.6 °F 0.1 °F 3.2 °F 79% 30.39 in 10.0 mi West 4.6 mph - N/A   Scattered Clouds
10:15 PM 6.8 °F -0.1 °F 3.2 °F 85% 30.40 in 10.0 mi WSW 3.5 mph - N/A   Scattered Clouds
10:35 PM 6.8 °F -3.5 °F 3.2 °F 85% 30.39 in 10.0 mi West 5.8 mph - N/A   Clear
10:55 PM 6.8 °F -2.0 °F 3.2 °F 85% 30.39 in 10.0 mi West 4.6 mph - N/A   Clear
11:15 PM 6.8 °F -5.9 °F 3.2 °F 85% 30.39 in 10.0 mi West 8.1 mph - N/A   Scattered Clouds
11:35 PM 5.0 °F -8.1 °F 1.4 °F 85% 30.39 in 10.0 mi WNW 8.1 mph - N/A   Scattered Clouds
11:55 PM 5.0 °F -8.1 °F 1.4 °F 85% 30.38 in 10.0 mi WNW 8.1 mph - N/A   Scattered Clouds